Погода в Мценске

Погода в Мценске : погода сейчас, прогноз погоды и архив. Всё, что Вы хотите узнать о погоде в Мценске!

Поиск расширенной информации на нашем сайте:

Другие новости

Новости СМИ2

Главная страница сайта

Новости сайта

02.10.2013

Напоминаем, что на нашем новом сайте вы можете получить высокодетализированные прогнозы погоды по пунктам России, СНГ и мира (включающие важные для авиации метеовеличины, такие как направление и скорость ветра, видимость, явления погоды, количество и форма облачности, нижняя и верхняя граница облачности), а также ознакомиться с разнообразными материалами по авиационной метеорологии и подборкой полезных ссылок на эту тему.

Сайт Метеоцентр.Азия посвящён разработке технологий оптимизации авиаметеорологического обслуживания, включая проектирование и перспективное создание нескольких автоматизированных авиаметеорологических систем:
- система выпуска высокодетальных прогностических карт явлений погоды для нижнего воздушного пространства по России и ближнему зарубежью;
- система верификации прогнозов TAF (выпускаемых синоптиками официальных АМСГ РФ и ближнего зарубежья) и AUTOTAF (выпускаемых сайтом Метеоцентр.Азия) - выявление ошибок, онлайн-сопоставление с фактической погодой METAR, автоматическое внесение коррективов в прогнозы при резком отклонении фактической погоды от прогноза, подсчёт оправдываемости прогнозов по элементам и в целом;
- система обработки, анализа и отображения авиаметеорологической информации для применения провайдерами метеорологической информации.


Погода в Мценске - сегодня

Время (UTC), дата Ветер
(°,м/с) 
Видим.   Явления Облачность Т
(°С)
Тd
(°С)
f(%) Тe
(°С)
Pmin
(гПа)
dP
(гПа)
Po
(мм)
O2
(г/м3)
Тmin Tmax R s Состояние
почвы
00 24.03.17 тихо ()   8000 м  дымка  ясно 
-0.8 -2.1 91 -1  1025.9  0.2  750  303           
03 24.03.17 150 (ЮВ) 4300 м  дымка  6/0 средняя 
[Ac trans]
-1.5 -2.6 92 -1  1024.8  -1.2  749  304  -1.8         
06 24.03.17 160 (Ю) 9000 м  дымка  10/0 средняя 
[Ac und]
-0.2 -1.6 90 1023.1  -1.6  748  302  -2.1         
09 24.03.17 180 (Ю) 20000 м    10/0 средняя 
[Ac und]
+6.7 +0 62 +7  1020.4  -2  747  294           
12 24.03.17 160 (Ю) 17000 м  слаб. дождь  10/10 300 м 
[Frnb|Ns]
+3.7 +0.8 81 +3  1017  -3.6  744  296           
15 24.03.17 350 (С) 8000 м  слаб. дождь  10/10 300 м 
[Frnb|Ns]
+2.3 +1 91 +3  1014.4  -2.6  742  296         
18 24.03.17 330 (СЗ) 6000 м  дымка{дождь}  10/10 600 м 
[Sc]
+2.5 +1.5 93 +2  1014.3  -0.1  742  296    +6.9     
21 24.03.17 340 (С) 3{11}  14000 м    8/8 600 м 
[Sc]
+1.1 -1.2 85 1015.3  0.9  743  298           
00 25.03.17 310 (СЗ) 13000 м    6/6 600 м 
[Sc]
+0.3 -1.7 86 -1  1016.1  0.7  743  299           
03 25.03.17 320 (СЗ) 18000 м    3/0 средняя 
[Ac trans]
-1 -3.9 81 -4  1017.1  0.7  744  301  -1         
06 25.03.17 320 (СЗ) 21000 м    ясно 
-0.2 -6.4 63 -3  1018  745  301  -1         
09 25.03.17 320 (СЗ) 4{10}  30000 м    4/4 600 м 
[Sc]
+2 -8.2 47 1017.6  -0.2  744  299           
12 25.03.17 300 (СЗ) 35000 м    4/4 600 м 
[Sc]
+4.8 -7.2 41 +3  1016  -1.2  743  295           
15 25.03.17 300 (СЗ) 35000 м    4/3 600 м верхняя 
[Sc|Ci fib]
+4.6 -7.6 41 +3  1014.8  -1.2  743  295           
18 25.03.17 250 (З) 28000 м    ясно 
+1.3 -7 54 +1  1015.1  743  298    +5.3       
21 25.03.17 тихо ()   23000 м    ясно 
-1.6 -6.4 70 -2  1015.9  0.5  743  302           
00 26.03.17 тихо ()   17000 м    ясно 
-3.3 -6.1 81 -3  1016.5  0.4  743  304           
03 26.03.17 тихо ()   8000 м  дымка  8/0 средняя 
[Ac trans]
-3.9 -5.4 89 -4  1016.9  0.3  743  304  -4.2         
06 26.03.17 тихо ()   20000 м    6/0 средняя, верхняя 
[Ac trans|Ci fib]
-0.6 -4.4 75 -1  1017.4  0.8  744  301  -4.2         
09 26.03.17 300 (СЗ) 29000 м    8/6 600 м кучево-дожд., средняя 
[Cb calv|Ac trans]
+4.7 -9.4 35 +4  1017.6  0.6  745  296           
12 26.03.17 310 (СЗ) 35000 м    8/8 600 м кучево-дожд. 
[Cb calv]
+6.4 -9.8 30 +7  1016.1  -1.2  744  294           
15 26.03.17 230 (ЮЗ) 35000 м    9/9 600 м кучево-дожд. 
[Cb calv]
+5.5 -8.4 36 +6  1014.8  -1.3  743  294           
18 26.03.17 240 (ЮЗ) 28000 м    5/5 600 м кучево-дожд. 
[Cb calv]
+2.7 -7.5 47 +2  1013.6  -1.5  742  297    +7.6       
21 26.03.17 250 (З) 25000 м    10/10 600 м 
[Sc]
+2.3 -7.7 48 +1  1010.3  -3.2  739  296           
00 27.03.17 220 (ЮЗ) 4{12}  2100 м  снег  10/10 300 м 
[Frnb|Ns]
-0.4 -1.9 90 -3  1004.4  -6  735  297           
Время (UTC), дата Ветер
(°,м/с) 
Видим.   Явления Облачность Т
(°С)
Тd
(°С)
f(%) Тe
(°С)
Pmin
(гПа)
dP
(гПа)
Po
(мм)
O2
(г/м3)
Тmin Tmax R s Состояние
почвы

Для получения пояснительной информации подведите курсор к названию столбца.

ПОГОДА в Мценске - архив

Всё, что Вы хотите узнать о погоде в Мценске - удобно и подробно!

Выберите нужную дату (начиная с 1 января 2015* года) и нажмите кнопку "Найти".
Будут отображены архивные сводки погоды по пункту Мценск, начиная с указанной даты.


Отображать данные в формате CSV (для использования в таблицах Excel)


Внимание! Наш архив погоды предназначен исключительно для личного некоммерческого использования в познавательных целях. Если Вам необходимы официальные справки о состоянии погоды (для производственных, юридических, коммерческих и т.п. целей), обращайтесь в органы Росгидромета.

*Примечание: данная дата относится к архиву по метеостанциям СССР (Россия, СНГ, Балтия).
Архив по метеостанциям Зарубежной Европы и Азии (кроме Китая) хранится 10 дней, по другим регионам земного шара (Китай, Африка, Америка, Австралия, Океания) - 1 день.

Мценск - район местоположения метеостанции


Название, широта, долгота, высота метеостанции:
Мценск 53.4°ш. 36.5°д. 201 м над ур. моря [Российская Федерация]

Дополнительная информация

В oтличие oт бoльшинства пoгoдных сайтoв мы публикуем пoдрoбную метеoинфoрмацию в детальнoм прoфессиoнальнoм фoрмате.

Характеристики температуры и влажнoсти вoздуха измеряются на высoте 2 м в тени вдали oт зданий и деревьев.
Скoрoсть ветра измеряется на высoте 10 м (на урoвне рoста челoвека скoрoсть ветра ниже в 1.5-2 раза). Если метеoстанция нахoдится в гoрoде или в лесу, тo скoрoсть ветра занижена на 2-4 м/с пo сравнению с oткрытым местoм. Скoрoсть ветра над акватoриями крупных рек и oзёр, а также на вершинах хoлмoв на 2-5 м/с выше, чем в oбычных услoвиях.
Атмoсфернoе давление в разных тoчках местнoсти мoжет значительнo oтличаться oт давления на метеoстанции, в зависимoсти oт услoвий рельефа (при пoдъёме на 10 м давление пoнижается примернo на 1 мм рт.ст.).